TimeGMT,TemperatureF,Dew PointF,Humidity,Sea Level PressureIn,VisibilityMPH,Wind Direction,Wind SpeedMPH,Gust SpeedMPH,PrecipitationIn,Events,Conditions,WindDirDegrees,DateUTC
12:00 AM,35,31,79,30.15,12,WSW,8.9,,,,Overcast,240,2013-11-22 00:00:00
12:00 AM,35.6,30.2,81,30.12,6.2,WSW,6.9,-,N/A,,Overcast,250,2013-11-22 00:00:00
1:00 AM,33.8,30.2,87,30.12,6.2,WSW,6.9,-,N/A,,Mostly Cloudy,240,2013-11-22 01:00:00
2:00 AM,33.8,32.0,93,30.15,6.2,WSW,4.6,-,N/A,,Overcast,250,2013-11-22 02:00:00
3:00 AM,33.8,32.0,93,30.15,6.2,WSW,5.8,-,N/A,,Overcast,250,2013-11-22 03:00:00
4:00 AM,33.8,32.0,93,30.15,6.2,WSW,4.6,-,N/A,,Overcast,250,2013-11-22 04:00:00
5:00 AM,33.8,30.2,87,30.15,6.2,WSW,5.8,-,N/A,,Mostly Cloudy,240,2013-11-22 05:00:00
6:00 AM,32,31,93,30.21,25,WSW,4.5,,,,Partly Cloudy,240,2013-11-22 06:00:00
6:00 AM,32.0,30.2,93,30.18,6.2,SW,5.8,-,N/A,,Mostly Cloudy,230,2013-11-22 06:00:00
7:00 AM,33.8,32.0,93,30.18,6.2,West,5.8,-,N/A,,Overcast,260,2013-11-22 07:00:00
8:00 AM,32.0,30.2,93,30.21,6.2,SW,5.8,-,N/A,,Mostly Cloudy,230,2013-11-22 08:00:00
8:30 AM,32.0,30.2,93,30.21,6.2,West,2.3,-,N/A,,Mostly Cloudy,260,2013-11-22 08:30:00
9:00 AM,30.2,28.4,93,30.21,6.2,SW,3.5,-,N/A,,Partly Cloudy,230,2013-11-22 09:00:00
9:30 AM,32.0,30.2,93,30.21,6.2,West,5.8,-,N/A,,Partly Cloudy,260,2013-11-22 09:30:00
10:00 AM,35.6,32.0,87,30.21,6.2,West,4.6,-,N/A,,Partly Cloudy,270,2013-11-22 10:00:00
10:30 AM,35.6,30.2,81,30.21,6.2,West,6.9,-,N/A,,Partly Cloudy,280,2013-11-22 10:30:00
11:00 AM,35.6,30.2,81,30.24,6.2,West,4.6,-,N/A,,Partly Cloudy,280,2013-11-22 11:00:00
11:30 AM,37.4,32.0,81,30.24,6.2,WSW,2.3,-,N/A,,Partly Cloudy,240,2013-11-22 11:30:00
12:00 PM,38,32,71,30.25,31,West,4.5,,,,Scattered Clouds,280,2013-11-22 12:00:00
12:00 PM,39.2,32.0,75,30.21,6.2,West,3.5,-,N/A,,Partly Cloudy,280,2013-11-22 12:00:00
12:30 PM,39.2,32.0,75,30.21,6.2,WNW,4.6,-,N/A,,Partly Cloudy,290,2013-11-22 12:30:00
1:00 PM,41.0,33.8,76,30.21,6.2,WNW,3.5,-,N/A,,Partly Cloudy,300,2013-11-22 13:00:00
1:30 PM,41.0,33.8,76,30.21,6.2,North,2.3,-,N/A,,Partly Cloudy,360,2013-11-22 13:30:00
2:00 PM,44.6,33.8,66,30.21,6.2,NNW,1.2,-,N/A,,Partly Cloudy,340,2013-11-22 14:00:00
2:30 PM,42.8,33.8,70,30.21,6.2,NNW,2.3,-,N/A,,Partly Cloudy,340,2013-11-22 14:30:00
3:00 PM,42.8,33.8,70,30.24,6.2,WNW,2.3,-,N/A,,Partly Cloudy,300,2013-11-22 15:00:00
3:30 PM,41.0,33.8,76,30.24,6.2,NNW,3.5,-,N/A,,Partly Cloudy,330,2013-11-22 15:30:00
4:00 PM,41.0,33.8,76,30.24,6.2,NNW,3.5,-,N/A,,Partly Cloudy,340,2013-11-22 16:00:00
4:30 PM,39.2,33.8,81,30.24,6.2,NNW,3.5,-,N/A,,Partly Cloudy,330,2013-11-22 16:30:00
5:00 PM,37.4,33.8,87,30.27,6.2,NW,2.3,-,N/A,,Partly Cloudy,320,2013-11-22 17:00:00
6:00 PM,34,32,88,30.30,19,SW,2.2,,,,,230,2013-11-22 18:00:00
6:00 PM,33.8,32.0,93,30.27,6.2,SW,2.3,-,N/A,,Unknown,230,2013-11-22 18:00:00
7:00 PM,30.2,28.4,93,30.27,6.2,SW,2.3,-,N/A,,Partly Cloudy,230,2013-11-22 19:00:00
8:00 PM,30.2,30.2,100,30.27,6.2,SW,2.3,-,N/A,,Partly Cloudy,220,2013-11-22 20:00:00
9:00 PM,30.2,28.4,93,30.27,6.2,SSW,2.3,-,N/A,,Partly Cloudy,200,2013-11-22 21:00:00
10:00 PM,28.4,28.4,100,30.30,6.2,SSW,3.5,-,N/A,,Mostly Cloudy,210,2013-11-22 22:00:00
11:00 PM,28.4,26.6,93,30.30,6.2,SSW,3.5,-,N/A,,Mostly Cloudy,210,2013-11-22 23:00:00